Weather reports worldwide

Advertisment
Noervenich/Flugplatz, Germany (10502): temperature & dewpoint: 08.11.2018 13:00:00 - 14.11.2018 13:00:00 (CET)Noervenich/Flugplatz, Germany (10502): wind speed & gusts: 08.11.2018 13:00:00 - 14.11.2018 13:00:00 (CET)Noervenich/Flugplatz, Germany (10502): wind direction: 08.11.2018 13:00:00 - 14.11.2018 13:00:00 (CET)Noervenich/Flugplatz, Germany (10502): reduced air pressure: 08.11.2018 13:00:00 - 14.11.2018 13:00:00 (CET)Noervenich/Flugplatz, Germany (10502): visibility: 08.11.2018 13:00:00 - 14.11.2018 13:00:00 (CET)
Date & Time tt [°C] td [°C] ff [km/h] ff [kn] fx [km/h] fx [kn] dd ppp [hPa] vv [km]
14.11.2018 13:00:00 10,4 5,9 14 8 - - SE 1028,5 30
14.11.2018 12:00:00 10,3 5,5 11 6 - - SE 1029,0 30
14.11.2018 11:00:00 9,0 5,0 14 8 - - SSE 1029,7 30
14.11.2018 10:00:00 7,2 4,3 11 6 - - SSE 1029,8 30
14.11.2018 09:00:00 5,3 3,6 7 4 - - SSE 1029,6 30
14.11.2018 08:00:00 4,7 3,5 14 8 - - S 1029,5 30
14.11.2018 07:00:00 5,7 4,3 7 4 - - S 1029,3 30
14.11.2018 06:00:00 5,5 4,3 11 6 - - S 1029,4 30
14.11.2018 05:00:00 4,5 3,6 7 4 - - SE 1029,9 25
14.11.2018 04:00:00 6,8 5,0 7 4 - - SSE 1030,1 25
14.11.2018 03:00:00 7,2 5,0 11 6 - - SSW 1030,2 25
14.11.2018 02:00:00 5,8 4,9 7 4 - - S 1030,4 25
14.11.2018 01:00:00 7,1 5,0 11 6 - - SSW 1030,4 25
14.11.2018 00:00:00 7,9 5,4 11 6 - - SSW 1030,2 25
13.11.2018 23:00:00 8,3 5,5 7 4 - - SSW 1029,8 25
13.11.2018 22:00:00 8,9 5,7 11 6 - - SW 1029,7 10
13.11.2018 21:00:00 8,3 5,4 14 8 - - SW 1029,3 25
13.11.2018 20:00:00 7,3 5,1 11 6 - - SSW 1029,1 25
13.11.2018 19:00:00 9,3 5,4 7 4 - - SSW 1028,5 25
13.11.2018 18:00:00 10,3 5,5 11 6 - - SW 1028,1 25
13.11.2018 17:00:00 - - - - - - - - -
13.11.2018 16:00:00 12,1 5,4 29 16 - - W 1026,3 25
13.11.2018 15:00:00 12,6 6,1 25 14 50 27 W 1025,5 25
13.11.2018 14:00:00 12,7 5,5 29 16 58 31 W 1024,8 20
13.11.2018 13:00:00 12,7 5,3 36 19 - - WSW 1024,3 20
13.11.2018 12:00:00 13,0 6,2 25 14 47 25 WSW 1024,4 20
13.11.2018 11:00:00 12,5 6,1 22 12 - - WSW 1023,8 20
13.11.2018 10:00:00 11,6 6,4 25 14 - - WSW 1023,2 20
13.11.2018 09:00:00 10,5 6,6 14 8 - - WSW 1022,8 20
13.11.2018 08:00:00 10,3 6,3 14 8 - - SW 1021,9 20
13.11.2018 07:00:00 10,6 6,7 11 6 - - SW 1021,1 30
13.11.2018 06:00:00 10,3 6,8 11 6 - - SSW 1020,6 30
13.11.2018 05:00:00 10,1 7,0 7 4 - - SW 1020,4 30
13.11.2018 04:00:00 9,3 7,2 7 4 - - SW 1019,9 20
13.11.2018 03:00:00 9,9 7,5 7 4 - - SW 1019,9 20
13.11.2018 02:00:00 8,9 8,3 4 2 - - SE 1019,3 20
13.11.2018 01:00:00 9,1 8,4 4 2 - - N 1019,7 30
13.11.2018 00:00:00 9,2 8,3 4 2 - - SW 1019,7 30
12.11.2018 23:00:00 9,7 8,4 4 2 - - WSW 1019,2 20
12.11.2018 22:00:00 10,2 8,6 5 3 - - SW 1019,0 10
12.11.2018 21:00:00 9,3 8,5 11 6 - - WNW 1018,7 20
12.11.2018 20:00:00 10,5 9,2 7 4 - - WNW 1018,1 20
12.11.2018 19:00:00 10,9 9,2 11 6 - - WNW 1017,7 20
12.11.2018 18:00:00 11,0 9,4 14 8 - - NW 1016,3 20
12.11.2018 17:00:00 11,1 9,8 11 6 - - NW 1015,3 20
12.11.2018 16:00:00 11,1 9,9 14 8 - - WNW 1014,1 20
12.11.2018 15:00:00 12,2 11,0 14 8 - - WNW 1013,8 15
12.11.2018 14:00:00 14,7 11,7 18 10 - - NW 1012,8 25
12.11.2018 13:00:00 18,6 11,8 14 8 - - SSW 1011,8 25
12.11.2018 12:00:00 17,2 11,4 14 8 - - SSW 1011,7 25
12.11.2018 11:00:00 14,4 11,8 7 4 - - E 1011,8 25
12.11.2018 10:00:00 11,0 10,0 7 4 - - E 1011,8 15
12.11.2018 09:00:00 10,2 9,7 7 4 - - E 1012,2 15
12.11.2018 08:00:00 10,1 9,6 7 4 - - N 1012,5 15
12.11.2018 07:00:00 10,1 9,6 7 4 - - SE 1012,7 8
12.11.2018 06:00:00 10,1 9,5 7 4 - - SSE 1013,0 8
12.11.2018 05:00:00 10,4 9,5 11 6 - - SSE 1013,0 8
12.11.2018 04:00:00 10,7 9,3 11 6 - - SSE 1013,2 10
12.11.2018 03:00:00 11,3 8,9 7 4 - - S 1013,3 30
12.11.2018 02:00:00 10,8 8,4 7 4 - - SSE 1013,0 30
12.11.2018 01:00:00 11,0 8,0 4 2 - - N 1013,1 30
12.11.2018 00:00:00 11,1 7,8 7 4 - - S 1013,1 30
11.11.2018 23:00:00 11,1 7,7 11 6 - - SSW 1012,5 30
11.11.2018 22:00:00 11,4 7,6 7 4 - - S 1011,9 30
11.11.2018 21:00:00 12,2 7,1 14 8 - - SW 1010,9 30
11.11.2018 20:00:00 11,8 7,6 18 10 - - SSW 1009,8 25
11.11.2018 19:00:00 13,0 7,5 22 12 - - SW 1009,1 30
11.11.2018 18:00:00 12,3 8,7 7 4 - - SW 1009,5 30
11.11.2018 17:00:00 12,1 9,2 11 6 - - S 1009,2 30
11.11.2018 16:00:00 11,8 9,6 11 6 - - S 1008,9 30
11.11.2018 15:00:00 12,7 8,8 11 6 - - SSW 1008,9 30
11.11.2018 14:00:00 14,0 7,5 18 10 - - SSW 1008,3 35
11.11.2018 13:00:00 14,2 7,4 14 8 - - SSW 1007,7 35
11.11.2018 12:00:00 13,6 7,5 18 10 - - SSW 1007,8 35
11.11.2018 11:00:00 13,2 7,1 18 10 - - SSW 1007,2 30
11.11.2018 10:00:00 13,0 7,2 14 8 - - SSW 1007,1 30
11.11.2018 09:00:00 11,9 7,5 14 8 - - S 1006,5 30
11.11.2018 08:00:00 11,6 7,2 11 6 - - S 1005,8 30
11.11.2018 07:00:00 11,8 7,4 11 6 - - S 1005,2 25
11.11.2018 06:00:00 11,2 7,4 11 6 - - SSE 1005,2 25
11.11.2018 05:00:00 11,6 7,6 14 8 - - SSE 1005,0 25
11.11.2018 04:00:00 11,3 7,9 14 8 - - SSE 1005,1 25
11.11.2018 03:00:00 11,2 7,9 14 8 - - SSE 1005,2 25
11.11.2018 02:00:00 11,5 8,7 14 8 - - SSE 1005,3 25
11.11.2018 01:00:00 11,6 8,9 14 8 - - SSE 1004,8 25
11.11.2018 00:00:00 12,1 9,0 14 8 - - S 1004,7 25
10.11.2018 23:00:00 11,7 9,2 11 6 - - S 1004,7 25
10.11.2018 22:00:00 11,9 9,3 11 6 - - S 1004,4 25
10.11.2018 21:00:00 12,1 10,2 11 6 - - SSE 1003,7 8
10.11.2018 20:00:00 12,7 10,4 11 6 - - S 1003,9 5
10.11.2018 19:00:00 13,4 10,0 18 10 - - S 1003,5 13
10.11.2018 18:00:00 13,6 9,9 14 8 - - SSE 1003,4 14
10.11.2018 17:00:00 13,9 9,8 11 6 - - S 1003,1 14
10.11.2018 16:00:00 14,4 9,6 11 6 - - S 1002,9 14
10.11.2018 15:00:00 14,6 9,5 14 8 - - S 1003,0 14
10.11.2018 14:00:00 14,1 10,1 14 8 - - SSE 1003,3 13
10.11.2018 13:00:00 13,9 9,3 11 6 - - SSW 1004,0 13
10.11.2018 12:00:00 13,2 9,8 7 4 - - S 1004,4 12
10.11.2018 11:00:00 13,4 9,1 14 8 - - S 1004,6 14
10.11.2018 10:00:00 13,3 8,9 18 10 - - SSW 1004,2 16
10.11.2018 09:00:00 13,3 8,5 18 10 - - S 1004,2 16
10.11.2018 08:00:00 13,6 7,8 18 10 - - S 1003,7 17
10.11.2018 07:00:00 11,3 7,6 11 6 - - SSE 1003,6 13
10.11.2018 06:00:00 11,5 7,3 14 8 - - SE 1003,9 11
10.11.2018 05:00:00 11,6 7,4 11 6 - - SE 1004,5 12
10.11.2018 04:00:00 11,6 7,1 14 8 - - SSE 1005,1 13
10.11.2018 03:00:00 12,2 7,0 14 8 - - S 1005,7 14
10.11.2018 02:00:00 10,1 7,1 7 4 - - SE 1006,5 12
10.11.2018 01:00:00 9,6 7,2 11 6 - - SE 1007,3 12
10.11.2018 00:00:00 9,6 7,4 7 4 - - SE 1008,1 11
09.11.2018 23:00:00 9,8 7,7 11 6 - - SE 1008,9 11
09.11.2018 22:00:00 10,9 7,8 7 4 - - N 1009,7 25
09.11.2018 21:00:00 12,1 8,0 14 8 - - S 1010,0 25
09.11.2018 20:00:00 12,1 8,0 11 6 - - SSE 1010,5 30
09.11.2018 19:00:00 12,3 7,9 11 6 - - SSE 1011,0 30
09.11.2018 18:00:00 13,1 7,5 11 6 - - SSE 1011,5 30
09.11.2018 17:00:00 13,6 7,2 11 6 - - S 1011,1 30
09.11.2018 16:00:00 14,3 7,2 11 6 - - SSE 1011,3 30
09.11.2018 15:00:00 14,4 8,1 7 4 - - SE 1011,7 30
09.11.2018 14:00:00 14,5 7,9 11 6 - - SSE 1012,4 30
09.11.2018 13:00:00 14,0 8,1 7 4 - - SE 1012,8 25
09.11.2018 12:00:00 12,4 8,2 11 6 - - SE 1013,9 15
09.11.2018 11:00:00 9,7 7,4 11 6 - - SE 1014,5 12
09.11.2018 10:00:00 8,8 6,6 7 4 - - SSE 1014,7 10
09.11.2018 09:00:00 7,5 6,3 14 8 - - SSE 1014,8 10
09.11.2018 08:00:00 7,2 6,2 4 2 - - N 1015,1 15
09.11.2018 07:00:00 6,9 6,0 7 4 - - SSE 1014,9 15
09.11.2018 06:00:00 7,7 6,2 4 2 - - N 1015,0 15
09.11.2018 05:00:00 7,7 6,1 11 6 - - SSE 1014,8 9
09.11.2018 04:00:00 6,3 5,6 4 2 - - SE 1015,3 10
09.11.2018 03:00:00 6,1 5,0 4 2 - - N 1016,0 9
09.11.2018 02:00:00 6,2 5,2 0 0 - - N 1016,5 10
09.11.2018 01:00:00 6,6 5,2 4 2 - - E 1017,1 9
09.11.2018 00:00:00 6,1 4,7 4 2 - - N 1017,9 10
08.11.2018 23:00:00 5,3 3,9 4 2 - - SE 1018,7 10
08.11.2018 22:00:00 6,6 4,7 4 2 - - SE 1018,9 10
08.11.2018 21:00:00 6,7 4,9 4 2 - - SE 1019,4 11
08.11.2018 20:00:00 5,4 3,3 7 4 - - SSE 1020,0 25
08.11.2018 19:00:00 7,5 4,8 4 2 - - SE 1020,1 30
08.11.2018 18:00:00 8,3 5,3 4 2 - - E 1020,3 30
08.11.2018 17:00:00 10,7 5,6 7 4 - - E 1020,4 30
08.11.2018 16:00:00 11,9 6,4 7 4 - - ENE 1020,9 30
08.11.2018 15:00:00 13,0 4,8 4 2 - - NE 1021,1 30
08.11.2018 14:00:00 13,0 5,8 4 2 - - N 1021,6 30
08.11.2018 13:00:00 12,2 5,7 7 4 - - N 1022,1 30

tt = temperature
td = dewpoint
ff = wind speed
fx = gusts
dd = wind direction
ppp = reduced air pressure
vv = visibility

Next stations